RH
17 20 23 18 22 19 18 19 20 16 10 11 13 11 9 43 61 65 63 62 62 61 54 57 58 59 56 46 46 62 68 67 73 78 80 79 80 80 80 83 84 85 86 86
21 27 20 16 17 20 21 23 24 18 10 11 12 12 13 43 61 60 61 65 63 60 57 57 60 62 60 54 54 59 69 71 78 83 85 90 92 87 88 86 86 88 89 89
23 20 20 21 23 24 25 23 18 12 11 10 10 13 11 58 56 55 58 59 59 63 62 60 63 68 57 54 56 56 69 74 79 82 87 91 91 88 86 86 89 91 93 93
23 18 18 19 25 25 30 19 15 13 15 18 13 22 15 61 62 59 60 63 64 64 62 64 69 70 62 58 56 57 62 77 84 86 92 96 94 91 90 90 90 90 94 95
26 23 25 22 21 22 25 17 17 16 19 17 16 18 18 62 69 67 65 63 65 64 67 72 74 67 60 59 60 61 69 77 84 88 91 94 95 95 94 92 92 93 94 96
26 18 20 23 19 20 19 16 24 26 22 25 20 17 25 78 63 62 62 62 63 64 68 71 71 59 59 58 60 68 79 79 82 84 84 87 92 95 94 94 95 95 95 96
23 22 19 16 17 15 16 20 31 28 28 30 21 21 17 53 53 54 62 66 65 66 73 78 80 71 65 65 66 75 78 81 78 81 80 87 94 95 96 97 95 97 96 97
45 49 26 22 21 21 22 24 48 43 42 37 29 30 32 58 61 59 60 65 66 68 74 78 76 71 69 66 70 71 75 76 74 80 82 90 94 95 96 98 98 99 100 99
44 40 23 21 19 17 24 26 26 44 45 52 38 58 57 59 65 64 68 66 70 68 75 76 71 69 71 68 67 70 73 72 74 83 86 94 96 95 95 98 99 100 100 100
36 44 24 19 17 18 24 26 37 49 40 38 32 50 58 71 70 66 71 70 71 68 74 74 72 71 72 64 64 67 70 72 78 82 89 93 92 93 96 98 98 99 100 100
33 46 32 21 28 28 31 45 39 43 50 52 54 41 52 58 61 69 71 68 71 70 75 74 70 70 66 64 66 68 71 74 78 84 89 91 92 92 95 98 99 100 100 100
40 61 52 30 26 22 21 35 46 68 51 58 66 39 63 57 64 69 68 68 66 71 73 72 68 72 67 67 66 69 73 77 79 86 87 86 89 92 94 96 98 100 100 100
49 66 92 52 38 29 24 26 32 54 59 58 65 44 61 62 66 67 69 70 68 68 70 70 70 77 71 69 68 70 73 76 77 83 84 84 87 92 94 94 97 100 100 100
53 64 59 61 48 47 37 30 29 68 84 41 42 52 75 68 70 71 68 70 66 67 70 69 80 79 70 70 70 71 74 73 78 81 87 91 88 92 95 92 97 99 100 100
68 86 65 46 38 42 47 45 48 80 52 73 66 50 37 67 70 72 70 68 65 66 71 67 85 81 72 72 70 72 74 74 80 87 94 95 91 92 94 92 96 98 100 100
79 97 88 67 54 53 56 60 70 69 47 48 45 45 53 57 69 73 67 65 66 68 69 66 76 75 74 74 76 74 75 78 83 91 96 94 91 91 93 93 95 96 100 100
98 98 99 92 62 80 97 77 72 70 57 52 56 45 74 77 72 76 74 67 66 64 63 70 76 75 74 75 76 77 78 81 88 96 96 92 94 95 94 95 96 97 100 100
93 99 96 97 88 95 60 47 53 62 61 55 54 68 68 68 76 78 68 70 64 61 62 69 73 74 76 79 79 81 84 90 94 91 93 94 96 98 97 96 98 98 100 100
68 90 98 95 85 74 56 38 51 63 63 53 64 75 78 74 71 77 62 62 63 64 67 73 74 75 78 82 82 84 87 97 90 92 97 97 99 99 98 97 100 99 99 99
61 69 80 95 96 94 59 43 34 35 58 65 72 82 81 71 89 90 66 60 61 64 68 73 77 77 79 86 88 86 93 95 97 100 100 99 100 98 97 96 100 99 97 95
95 95 94 95 94 84 56 45 35 55 62 70 72 77 78 89 89 76 62 63 66 70 70 73 77 80 82 87 92 89 97 96 97 100 97 97 100 98 95 97 100 97 95 93
87 93 95 97 95 90 48 43 50 67 76 76 78 78 84 80 72 70 65 66 70 74 77 78 78 82 83 87 93 96 99 99 98 100 96 96 100 99 97 100 98 93 94 92
85 80 85 80 80 64 68 61 69 64 72 76 77 73 72 73 72 70 73 73 75 78 86 79 83 88 85 88 97 100 100 98 96 99 96 100 99 100 100 100 99 94 95 93
54 62 81 68 69 81 71 68 67 69 76 72 68 69 71 79 77 79 77 78 77 82 90 84 89 92 94 93 99 100 99 99 99 97 100 100 100 98 99 93 100 99 97 94
76 69 86 95 83 78 76 71 70 71 71 69 69 70 76 79 82 80 80 73 80 91 88 91 96 94 99 98 99 100 100 100 100 98 99 100 100 100 99 96 93 99 100 98
73 77 82 94 84 79 82 78 81 89 80 71 75 80 75 77 82 76 80 84 93 94 91 94 98 99 96 96 98 99 97 97 100 99 100 100 100 100 98 98 95 90 94 96
Wind_Speed
3 0 7 10 7 3 1 3 4 5 6 4 8 5 4 6 11 11 8 8 7 6 4 9 13 17 24 29 29 26 28 30 31 31 32 30 32 36 31 33 30 30 30 32
1 8 11 6 4 5 5 6 8 7 5 4 3 9 5 3 5 9 10 7 6 4 3 5 12 19 24 25 25 26 28 29 28 27 28 22 26 21 29 27 27 29 30 29
10 10 6 3 6 7 6 6 5 6 2 2 2 6 6 3 7 7 5 5 5 5 3 4 9 18 26 30 29 27 25 26 25 29 28 26 26 25 25 27 30 30 31 31
7 11 14 14 8 6 9 7 7 5 4 4 2 5 6 6 7 6 6 6 6 5 4 6 12 17 22 22 23 24 24 23 23 26 23 23 22 25 28 30 31 36 33 31
9 5 7 13 13 7 8 6 6 3 4 3 2 2 4 8 6 7 7 5 4 4 6 6 8 15 20 24 26 26 25 22 22 24 23 22 24 27 30 31 33 34 33 30
7 3 6 8 2 8 6 4 6 4 2 5 7 6 5 7 9 11 6 6 6 5 6 7 11 19 22 24 27 24 22 22 22 24 26 28 28 31 30 32 32 32 33 32
4 15 4 3 2 3 4 6 1 3 1 7 6 8 15 1 10 14 11 7 6 6 5 5 7 15 20 24 25 21 22 22 26 28 32 32 28 27 29 30 30 37 35 33
10 7 14 8 19 7 8 9 6 6 4 4 3 7 5 3 7 10 9 7 6 5 5 4 6 12 16 21 20 23 24 27 29 29 32 30 27 27 29 32 34 35 34 35
6 7 4 6 5 16 7 9 6 5 1 1 4 2 1 3 6 8 7 6 5 4 4 5 7 11 13 16 20 21 25 28 30 29 30 27 27 30 31 36 35 35 37 38
5 5 2 1 5 3 8 9 3 1 5 7 5 5 4 10 10 7 7 6 5 5 4 3 6 9 9 17 21 23 25 28 28 27 26 26 27 30 32 34 33 37 39 41
14 3 2 3 4 9 3 3 2 4 5 4 2 5 4 15 13 12 7 6 6 5 5 2 1 7 11 17 22 24 27 29 29 29 29 28 28 30 32 32 32 34 37 37
6 1 13 6 3 3 1 6 6 4 5 4 3 8 5 9 10 8 7 6 5 6 5 3 4 8 12 17 24 25 25 26 27 27 27 27 27 31 33 33 34 35 36 37
7 5 7 3 4 4 2 3 2 4 2 5 4 4 3 5 6 6 7 7 6 6 4 3 7 7 10 17 22 23 23 25 28 29 27 28 27 32 34 34 34 35 34 37
3 4 11 15 3 4 5 5 4 5 2 6 10 4 6 9 9 8 6 7 6 5 5 4 5 6 9 14 20 22 25 27 28 30 27 29 29 33 34 35 34 34 32 33
4 4 6 3 6 6 6 5 6 7 14 8 22 16 14 17 16 12 7 6 5 5 4 1 2 2 9 15 22 24 26 27 28 29 26 28 30 32 35 34 34 33 31 31
4 5 3 7 3 6 6 8 9 11 14 13 19 25 3 12 8 10 10 9 6 5 4 2 4 4 12 18 19 23 26 27 27 27 26 27 29 31 34 34 34 33 32 31
3 4 5 7 6 2 4 21 13 9 10 15 17 8 7 6 11 11 9 7 6 7 5 3 4 6 12 16 20 22 23 24 24 23 25 26 29 29 34 34 33 33 34 32
5 4 3 2 3 7 7 6 16 21 23 19 7 6 16 11 8 11 6 5 7 7 5 4 6 9 15 17 19 18 19 21 22 22 24 25 28 27 33 33 34 34 34 32
11 6 3 3 6 6 7 3 6 8 9 12 7 10 13 15 11 6 4 5 8 7 7 10 10 11 13 16 18 17 19 18 19 22 25 25 27 27 29 32 33 33 33 33
8 5 6 3 4 6 4 5 4 5 8 4 9 15 18 14 6 4 9 12 11 11 11 9 8 10 13 15 16 18 20 18 20 24 26 26 25 26 25 31 30 32 31 29
3 2 9 4 4 6 6 7 1 6 5 4 11 13 15 5 2 12 14 13 14 11 10 9 11 13 14 15 16 18 19 18 21 25 25 25 24 23 23 30 27 30 31 29
7 7 4 2 4 8 1 1 6 5 7 10 13 12 14 13 14 14 13 11 12 11 12 12 11 12 14 15 16 18 16 20 22 25 24 25 23 23 24 26 26 28 30 28
4 6 6 7 5 3 3 1 7 7 14 7 14 13 15 14 13 11 10 10 11 11 10 11 11 12 14 15 16 17 18 20 22 22 24 25 21 23 23 24 24 25 28 28
3 3 3 5 2 3 10 12 12 11 15 14 15 14 14 14 11 11 9 8 9 10 11 12 14 12 13 17 16 15 16 20 22 21 23 23 21 21 23 22 22 23 26 27
5 6 6 4 8 11 8 12 16 17 17 14 13 12 14 14 10 10 9 10 11 11 13 13 10 10 13 16 17 17 18 20 20 21 21 22 20 21 21 21 23 23 25 28
4 6 6 5 11 7 10 13 17 17 14 13 15 13 13 16 12 16 11 11 11 11 10 11 11 11 14 16 18 19 20 21 21 19 20 21 21 21 21 21 20 25 23 25
Wind_Direction
327 24 225 219 207 164 35 243 256 266 274 206 227 225 201 104 120 133 139 142 143 132 127 84 57 43 31 24 19 13 7 5 360 354 351 345 338 335 331 328 328 325 321 321
41 258 255 212 225 232 239 266 271 277 261 203 218 251 101 185 144 150 150 145 153 128 98 71 47 36 30 21 18 11 10 5 356 348 346 330 324 326 324 323 323 316 313 311
193 215 35 197 256 253 229 213 243 210 307 5 112 301 250 50 104 114 121 127 114 121 112 49 43 33 21 17 11 7 6 1 351 349 343 338 336 334 330 326 323 317 310 304
231 229 234 259 252 210 255 215 223 165 113 215 97 263 272 161 142 147 147 141 141 119 75 55 36 27 19 13 10 5 5 353 349 348 335 339 332 326 326 318 318 314 309 302
227 206 193 225 235 177 240 185 173 137 134 112 265 292 236 134 174 186 181 166 143 119 93 81 49 24 17 14 10 6 355 349 348 344 341 335 336 326 322 322 321 315 311 304
218 228 159 198 159 195 131 83 47 47 95 257 188 189 215 191 188 173 168 162 155 105 78 69 41 22 16 14 12 4 343 349 348 346 345 346 337 328 322 323 321 315 313 307
216 243 248 171 132 60 127 123 270 292 230 240 218 204 256 300 176 169 162 161 141 102 84 53 33 13 12 10 7 352 352 346 355 350 349 344 334 325 325 318 319 318 315 314
206 269 206 197 209 169 189 165 171 210 213 265 132 229 275 76 86 107 121 138 124 103 108 68 32 13 7 5 355 358 358 354 359 350 344 338 332 331 325 322 318 316 311 309
186 256 236 209 174 168 194 205 172 115 273 61 233 282 278 123 102 119 133 130 133 107 105 70 19 13 4 350 359 359 3 360 358 347 338 331 336 336 327 322 321 318 316 314
224 275 240 219 113 37 173 153 95 331 194 236 252 258 245 184 175 160 158 158 143 105 105 68 10 2 357 359 357 4 7 3 354 342 336 333 338 333 327 324 322 320 317 319
220 202 234 113 225 167 146 175 129 144 160 191 255 253 336 192 181 165 165 161 158 143 137 127 316 16 8 0 360 4 7 1 350 343 341 338 335 331 329 325 323 323 319 318
200 161 248 212 260 227 174 179 153 150 196 221 158 265 344 151 148 147 160 149 149 142 149 135 29 33 8 1 4 5 2 357 348 343 341 336 331 332 333 330 326 327 324 321
196 206 230 240 314 340 153 170 186 105 59 206 176 249 89 113 131 162 156 152 149 145 118 74 20 18 1 4 2 359 360 355 350 347 338 335 335 336 334 331 329 329 329 326
350 177 204 225 202 137 163 164 142 104 159 267 254 274 183 196 181 180 173 156 143 127 88 41 1 5 3 2 2 358 358 355 351 347 337 336 337 336 335 332 332 331 331 329
75 347 317 266 168 155 161 210 180 185 243 234 263 263 255 198 194 182 157 159 134 117 107 42 356 304 360 4 5 2 358 351 350 342 335 338 337 336 337 336 334 334 334 334
199 212 319 301 211 204 208 228 209 225 206 239 244 249 200 190 140 156 158 148 139 130 142 74 90 21 15 8 360 358 353 347 347 340 336 340 339 340 338 338 337 337 337 338
216 194 178 235 214 216 276 237 238 245 233 220 231 220 136 162 170 159 146 135 142 135 108 86 91 37 20 10 4 355 346 346 340 338 338 342 339 339 340 340 341 342 340 340
171 232 172 163 75 241 233 186 213 224 236 230 238 157 180 176 132 116 108 130 127 121 103 91 81 37 21 12 3 348 348 344 343 343 342 343 338 340 342 344 344 344 343 342
208 193 186 181 202 309 297 240 172 186 264 226 195 124 118 112 89 50 105 104 107 105 106 107 77 45 25 14 359 350 350 348 348 345 342 343 341 341 346 346 345 343 343 343
183 205 192 138 215 225 244 280 313 145 261 187 149 152 145 137 156 166 114 107 98 97 94 93 76 41 26 10 355 354 352 351 347 342 337 341 345 345 347 349 345 344 344 344
117 128 206 177 219 280 245 272 185 184 239 117 145 149 143 111 129 122 111 98 102 98 87 76 59 36 18 12 357 354 352 349 340 339 341 343 346 347 348 354 351 348 348 348
172 156 179 167 200 257 237 93 178 165 60 106 114 118 103 109 109 108 105 106 96 80 61 51 47 29 21 10 0 353 350 342 341 341 344 349 348 353 355 354 353 355 353 354
201 179 173 185 210 270 328 130 107 119 119 113 108 112 117 115 111 110 103 92 79 69 66 46 46 29 16 9 8 351 347 346 343 341 348 351 353 355 3 5 2 1 360 1
209 166 130 124 200 115 115 97 96 99 105 113 112 116 115 116 116 106 103 94 82 72 62 45 41 23 4 13 8 358 351 353 353 350 352 354 355 359 7 13 9 6 5 6
200 147 125 76 103 85 77 108 114 102 98 102 102 112 116 113 111 114 98 86 80 72 57 47 35 23 12 14 15 13 5 2 360 359 357 358 356 357 5 13 16 13 14 14
191 173 170 189 170 122 133 122 114 117 126 123 116 103 101 112 108 100 89 87 86 76 59 47 39 29 24 26 23 22 21 18 6 3 3 3 358 1 6 5 3 20 19 18